This demonstration page uses our WeatherBlox Daily Observations layout. Learn more.

Left ArrowRight Arrow

38.88101, -77.10428

Hourly Observations for July 24, 2016

Temp ( °F °C ) Dew Point ( °F °C ) Humidity (%) Winds ( mph kmh ) Pressure ( in mb ) Visibility ( mi km ) Precip ( " mm )
12:52 am 00:52 Mostly Cloudy 84 28.9 78 25.6 82 82 SSW 5 7 29.93 1014 10 16.0934 0 0
1:52 am 01:52 Partly Cloudy 86 30 71 21.7 61 61 WNW 6 9 29.94 1014 10 16.0934 0 0
2:52 am 02:52 Partly Cloudy 83 28.3 74 23.3 74 74 N 5 7 29.94 1014 10 16.0934 0 0
3:52 am 03:52 Partly Cloudy 81 27.2 72 22.2 74 74 N 7 11 29.95 1014 10 16.0934 0 0
4:52 am 04:52 Mostly Clear 81 27.2 71 21.7 72 72 NNW 6 9 29.95 1014 10 16.0934 0 0
5:52 am 05:52 Partly Cloudy 82 27.8 66 18.9 58 58 NNE 9 15 29.96 1015 10 16.0934 0 0
6:52 am 06:52 Partly Cloudy 81 27.2 66 18.9 61 61 NNE 9 15 29.98 1015 10 16.0934 0 0
7:52 am 07:52 Partly Cloudy 82 27.8 68 20 63 63 NE 7 11 30 1016 10 16.0934 0 0
8:52 am 08:52 Partly Cloudy 85 29.4 68 20 57 57 NE 7 11 30 1016 10 16.0934 0 0
9:52 am 09:52 Partly Cloudy 88 31.1 67 19.4 50 50 NE 6 9 30 1016 10 16.0934 0 0
10:52 am 10:52 Partly Cloudy 91 32.8 65 18.3 42 42 ENE 8 13 29.99 1016 10 16.0934 0 0
11:52 am 11:52 Mostly Cloudy 92 33.3 66 18.9 43 43 VRB 7 11 30.01 1016 10 16.0934 0 0
12:52 pm 12:52 Mostly Cloudy 93 33.9 64 17.8 38 38 VRB 5 7 30.01 1016 10 16.0934 0 0
1:52 pm 13:52 Mostly Sunny 94 34.4 64 17.8 37 37 SSE 5 7 29.99 1016 10 16.0934 0 0
1:55 pm 13:55 Mostly Cloudy 94 34.4 65 18.3 38 38 S 6 9 30 1016 10 16.0934 0 0
2:52 pm 14:52 Mostly Cloudy 95 35 67 19.4 40 40 SSE 5 7 29.98 1015 10 16.0934 0 0
3:52 pm 15:52 Mostly Cloudy 96 35.6 67 19.4 39 39 SE 5 7 29.96 1015 10 16.0934 0 0
4:52 pm 16:52 Mostly Cloudy 96 35.6 69 20.6 41 41 S 7 11 29.95 1014 10 16.0934 0 0
5:52 pm 17:52 Mostly Cloudy 95 35 70 21.1 44 44 S 10 17 29.94 1014 10 16.0934 0 0
6:52 pm 18:52 Mostly Cloudy 93 33.9 72 22.2 50 50 S 12 19 29.94 1014 10 16.0934 0 0
7:52 pm 19:52 Mostly Cloudy 90 32.2 74 23.3 59 59 S 9 15 29.95 1014 10 16.0934 0 0
8:52 pm 20:52 Mostly Cloudy 89 31.7 72 22.2 57 57 S 8 13 29.96 1014 10 16.0934 0 0
9:52 pm 21:52 Mostly Cloudy 87 30.6 71 21.7 59 59 SSE 8 13 29.97 1015 10 16.0934 0 0
10:52 pm 22:52 Cloudy 86 30 73 22.8 65 65 S 9 15 29.96 1015 10 16.0934 0 0
11:39 pm 23:39 Cloudy with Thunderstorms 85 29.4 74 23.3 70 70 Calm 29.97 1015 10 16.0934 0 0
11:52 pm 23:52 Cloudy with Light Thunderstorms 86 30 74 23.3 67 67 NNW 3 6 29.97 1015 8 12.87472 0 0.0254

Powered by AerisWeather